SH020 YSSY-YSSY

Flight info

Callsign SH020
Flight time 0h 1m
Altitude 3000
Route YSSY YSBK YSSY
Aircraft B407/L-V/N

Departure

Time 2026-05-06 01:03
Airport Sydney Kingsford Smith International Airport (YSSY)

Arrival

Time 2026-05-06 01:05
Airport Sydney Kingsford Smith International Airport (YSSY)
Time Latitude Longitude Altitude Speed Heading
2026-05-06 00:58 -33.93892 151.19091 22 ft 0 kts 42°
2026-05-06 01:00 -33.93895 151.19096 22 ft 0 kts 187°
2026-05-06 01:00 -33.93894 151.19096 22 ft 0 kts 252°
2026-05-06 01:02 -33.93895 151.19093 41 ft 2 kts 351°
2026-05-06 01:02 -33.93896 151.19112 236 ft 1 kts 11°
2026-05-06 01:02 -33.93961 151.19131 582 ft 21 kts 269°
2026-05-06 01:03 -33.93987 151.19042 995 ft 39 kts 326°
2026-05-06 01:03 -33.93624 151.18796 1129 ft 76 kts 293°
2026-05-06 01:03 -33.93690 151.18084 1042 ft 87 kts 239°
2026-05-06 01:03 -33.93906 151.17460 916 ft 102 kts 230°
2026-05-06 01:04 -33.94409 151.16839 761 ft 90 kts 192°
2026-05-06 01:04 -33.94684 151.17257 936 ft 90 kts 91°
2026-05-06 01:04 -33.94584 151.18083 766 ft 110 kts 68°
2026-05-06 01:04 -33.94357 151.18991 558 ft 116 kts 66°
2026-05-06 01:05 -33.94176 151.19495 832 ft 37 kts 318°
2026-05-06 01:05 -33.93975 151.19199 694 ft 67 kts 290°
2026-05-06 01:05 -33.93835 151.18647 520 ft 74 kts 270°
2026-05-06 01:05 -33.93712 151.18115 403 ft 63 kts 302°
2026-05-06 01:06 -33.93383 151.17763 255 ft 61 kts 320°
2026-05-06 01:06 -33.93054 151.17507 232 ft 50 kts 323°
2026-05-06 01:06 -33.92844 151.17415 305 ft 22 kts 242°
2026-05-06 01:06 -33.92823 151.17413 538 ft 7 kts 23°
2026-05-06 01:07 -33.92852 151.17373 884 ft 21 kts 247°
2026-05-06 01:07 -33.92897 151.17085 1056 ft 64 kts 317°
2026-05-06 01:07 -33.92795 151.16251 1049 ft 115 kts 275°
2026-05-06 01:07 -33.92799 151.15268 1108 ft 108 kts 266°
2026-05-06 01:08 -33.92900 151.14338 1214 ft 115 kts 256°
2026-05-06 01:08 -33.92964 151.13358 1246 ft 123 kts 265°
2026-05-06 01:08 -33.92973 151.12295 1237 ft 123 kts 263°
2026-05-06 01:08 -33.93048 151.11324 1436 ft 117 kts 260°
2026-05-06 01:09 -33.93152 151.10317 1474 ft 122 kts 262°
2026-05-06 01:09 -33.93218 151.09338 1624 ft 116 kts 275°
2026-05-06 01:09 -33.93119 151.08342 1655 ft 122 kts 275°
2026-05-06 01:09 -33.92895 151.07352 1771 ft 128 kts 287°
2026-05-06 01:10 -33.92823 151.06291 1546 ft 138 kts 258°
2026-05-06 01:10 -33.92859 151.05142 1373 ft 136 kts 261°
2026-05-06 01:10 -33.92850 151.03988 1153 ft 139 kts 266°
2026-05-06 01:10 -33.92797 151.02917 1165 ft 119 kts 271°
2026-05-06 01:11 -33.92739 151.01951 1170 ft 115 kts 267°
2026-05-06 01:11 -33.92627 151.01005 1156 ft 111 kts 275°
2026-05-06 01:11 -33.92489 151.00129 835 ft 103 kts 274°
2026-05-06 01:11 -33.92234 150.99424 365 ft 70 kts 287°
2026-05-06 01:12 -33.92068 150.99197 227 ft 22 kts 309°
2026-05-06 01:12 -33.92062 150.99072 118 ft 8 kts 172°
2026-05-06 01:12 -33.92118 150.99139 61 ft 14 kts 128°
2026-05-06 01:12 -33.92059 150.99178 71 ft 16 kts 174°
2026-05-06 01:13 -33.92119 150.99200 111 ft 24 kts 182°
2026-05-06 01:13 -33.92072 150.99143 32 ft 0 kts 159°